Home   Weather   Independence   Past weeks

Flag for USA Past Weather in Independence, Missouri, USA — Yesterday and Last 2 Weeks

Now
50 °F

Clear.


Feels Like: 47 °F
Forecast: 50 / 70 °F
Wind: 8 mph from North

Location: Lee's Summit Municipal Airport

Current Time: Sep 29, 2016 at 7:03:25 AM

Latest Report: Sep 29, 2016 at 5:53 AM


Visibility: 10 mi

Pressure: 30.30 "Hg

Humidity: 93%

Dew Point: 48 °F

Location of IndependenceLocation

Past Weather in Independence — Graph

°F

Independence Temperature Yesterday

Maximum temperature yesterday: 67 °F (at 3:53 PM)
Minimum temperature yesterday: 53 °F (at 11:53 PM)
Average temperature yesterday: 61 °F

High & Low Weather Summary for the Past Weeks

 TemperatureHumidityPressure
High92 °F (Sep 20, 2:53 PM)100% (Sep 17, 1:53 AM)30.30 "Hg (Sep 17, 1:53 AM)
Low50 °F (Sep 29, 5:53 AM)27% (Sep 26, 1:53 PM)29.84 "Hg (Sep 28, 3:53 AM)
Average72 °F74%30.03 "Hg
* Reported Sep 14 5:53 AM — Sep 29 5:53 AM, Independence, Weather by CustomWeather, © 2016

Note: Actual official high and low records may vary slightly from our data, if they occured in-between our weather recording intervals... More about our weather records

Advertising

Independence Weather History for the Previous 24 Hours

Scroll right to see more
 ConditionsComfort  
Time TempWeatherWind HumidityBarometerVisibility
5:53 AM
Thu, Sep 29
50 °FClear.8 mph93%30.30 "Hg10 mi
4:53 AM51 °FClear.8 mph86%30.29 "Hg10 mi
3:53 AM51 °FClear.8 mph86%30.28 "Hg10 mi
2:53 AM52 °FClear.8 mph83%30.28 "Hg10 mi
1:53 AM53 °FClear.10 mph80%30.26 "Hg10 mi
12:53 AM53 °FClear.8 mph80%30.27 "Hg10 mi
11:53 PM
Wed, Sep 28
53 °FClear.8 mph80%30.27 "Hg10 mi
10:53 PM55 °FClear.9 mph74%30.26 "Hg10 mi
9:53 PM56 °FClear.9 mph70%30.25 "Hg10 mi
8:53 PM58 °FClear.12 mph67%30.23 "Hg10 mi
7:53 PM60 °FPassing clouds.12 mph67%30.21 "Hg10 mi
6:53 PM62 °FScattered clouds.12 mph60%30.18 "Hg10 mi
5:53 PM64 °FSunny.10 mph56%30.17 "Hg10 mi
4:53 PM66 °FSunny.15 mph52%30.13 "Hg10 mi
3:53 PM67 °FSunny.15 mph51%30.12 "Hg10 mi
2:53 PM66 °FSunny.16 mph52%30.11 "Hg10 mi
1:53 PM65 °FSunny.13 mph52%30.10 "Hg10 mi
12:53 PM64 °FSunny.13 mph56%30.09 "Hg10 mi
11:53 AM62 °FSunny.15 mph56%30.07 "Hg10 mi
10:53 AM61 °FSunny.14 mph60%30.06 "Hg10 mi
9:53 AM59 °FSunny.16 mph60%30.03 "Hg10 mi
8:53 AM59 °FSunny.10 mph60%30.00 "Hg10 mi
7:53 AM56 °FSunny.9 mph72%29.96 "Hg10 mi
Weather by CustomWeather, © 2016

See weather overviewHow to use our weather pages